QPF
0.02 0.03 0.08 0.14 0.17 0.07 0.03 0.03 0.04 0.05 0.07 0.06 0.03 0.05 0.05 0.02 0.01 0.01 0.01 0.02 0.03 0.02 0.03 0.06 0.07 0.06 0.05 0.03 0.03 0.02 0.01 0.02 0.02 0.01 0.01 0.01 0.01 0.01 0.01 0.01 0.01 0.02 0.04 0.04 0.04 0.04 0.04 0.04 0.04
0.01 0.03 0.08 0.09 0.07 0.02 0.02 0.03 0.05 0.05 0.05 0.04 0.04 0.03 0.03 0.01 0.01 0.01 0.02 0.02 0.03 0.01 0.02 0.04 0.06 0.05 0.05 0.03 0.02 0.02 0.01 0.01 0.01 0.01 0.01 0.01 0.01 0.00 0.00 0.01 0.02 0.03 0.03 0.02 0.03 0.03 0.03 0.03 0.05
0.02 0.04 0.07 0.04 0.02 0.01 0.02 0.03 0.04 0.05 0.05 0.05 0.05 0.04 0.02 0.02 0.01 0.01 0.01 0.02 0.02 0.02 0.02 0.06 0.07 0.05 0.05 0.04 0.03 0.02 0.02 0.02 0.01 0.01 0.01 0.01 0.01 0.01 0.01 0.01 0.01 0.02 0.03 0.02 0.01 0.02 0.03 0.04 0.06
0.03 0.04 0.03 0.03 0.02 0.01 0.02 0.02 0.03 0.03 0.02 0.02 0.03 0.03 0.02 0.02 0.03 0.01 0.01 0.02 0.01 0.01 0.03 0.05 0.06 0.05 0.03 0.03 0.03 0.02 0.02 0.02 0.02 0.01 0.02 0.01 0.01 0.01 0.01 0.01 0.01 0.01 0.02 0.02 0.01 0.02 0.03 0.04 0.04
0.03 0.03 0.03 0.02 0.02 0.04 0.05 0.03 0.04 0.03 0.02 0.01 0.03 0.01 0.01 0.04 0.04 0.02 0.01 0.02 0.01 0.01 0.02 0.03 0.04 0.03 0.02 0.03 0.02 0.01 0.01 0.01 0.01 0.01 0.01 0.01 0.01 0.01 0.01 0.02 0.01 0.01 0.01 0.01 0.02 0.02 0.04 0.04 0.04
0.03 0.03 0.02 0.01 0.01 0.04 0.04 0.04 0.02 0.01 0.01 0.01 0.01 0.01 0.03 0.05 0.02 0.02 0.02 0.01 0.01 0.01 0.01 0.02 0.03 0.03 0.03 0.03 0.02 0.01 0.01 0.01 0.01 0.01 0.00 0.01 0.01 0.01 0.02 0.02 0.02 0.02 0.02 0.02 0.03 0.04 0.05 0.05 0.05
0.02 0.02 0.02 0.00 0.01 0.02 0.04 0.03 0.02 0.02 0.01 0.01 0.01 0.02 0.03 0.05 0.04 0.03 0.02 0.01 0.01 0.01 0.01 0.01 0.01 0.02 0.03 0.02 0.02 0.02 0.03 0.02 0.01 0.00 0.00 0.01 0.01 0.01 0.02 0.02 0.02 0.03 0.02 0.03 0.03 0.03 0.04 0.04 0.04
0.01 0.01 0.01 0.01 0.01 0.01 0.03 0.02 0.02 0.03 0.02 0.01 0.01 0.01 0.02 0.04 0.05 0.04 0.01 0.01 0.01 0.01 0.01 0.02 0.01 0.01 0.03 0.03 0.03 0.02 0.02 0.03 0.02 0.01 0.01 0.01 0.02 0.02 0.02 0.04 0.06 0.04 0.03 0.03 0.03 0.04 0.04 0.04 0.04
0.01 0.00 0.01 0.01 0.01 0.01 0.02 0.02 0.03 0.02 0.02 0.02 0.01 0.02 0.01 0.03 0.03 0.04 0.02 0.01 0.01 0.02 0.01 0.02 0.02 0.02 0.01 0.01 0.02 0.02 0.01 0.01 0.01 0.01 0.01 0.00 0.00 0.01 0.01 0.05 0.09 0.06 0.05 0.05 0.05 0.06 0.06 0.04 0.04
0.01 0.00 0.00 0.01 0.01 0.01 0.01 0.02 0.03 0.04 0.04 0.03 0.02 0.02 0.01 0.02 0.02 0.04 0.05 0.04 0.03 0.03 0.02 0.02 0.03 0.02 0.01 0.00 0.01 0.01 0.00 0.00 0.00 0.00 0.00 0.00 0.00 0.00 0.01 0.02 0.06 0.05 0.06 0.05 0.05 0.05 0.03 0.01 0.01
0.01 0.01 0.01 0.01 0.00 0.00 0.01 0.01 0.01 0.02 0.05 0.03 0.01 0.01 0.02 0.02 0.03 0.05 0.10 0.08 0.05 0.04 0.04 0.03 0.02 0.01 0.01 0.00 0.00 0.00 0.00 0.00 0.00 0.00 0.00 0.00 0.00 0.00 0.00 0.01 0.01 0.02 0.02 0.02 0.01 0.01 0.01 0.01 0.01
0.00 0.01 0.01 0.00 0.00 0.00 0.00 0.00 0.01 0.01 0.04 0.03 0.01 0.02 0.03 0.04 0.06 0.07 0.11 0.13 0.10 0.07 0.05 0.03 0.01 0.00 0.00 0.00 0.00 0.00 0.00 0.00 0.00 0.00 0.00 0.00 0.00 0.00 0.00 0.00 0.00 0.00 0.00 0.01 0.01 0.01 0.01 0.01 0.01
0.00 0.00 0.01 0.01 0.00 0.00 0.01 0.01 0.01 0.01 0.04 0.03 0.02 0.02 0.02 0.04 0.09 0.12 0.12 0.11 0.08 0.05 0.04 0.02 0.01 0.00 0.00 0.00 0.00 0.00 0.00 0.00 0.00 0.00 0.00 0.00 0.00 0.00 0.00 0.00 0.00 0.00 0.01 0.02 0.01 0.01 0.01 0.01 0.01
0.00 0.00 0.01 0.01 0.01 0.01 0.02 0.02 0.01 0.02 0.06 0.04 0.02 0.02 0.03 0.05 0.08 0.09 0.06 0.04 0.04 0.03 0.02 0.01 0.00 0.00 0.00 0.00 0.00 0.00 0.00 0.00 0.00 0.00 0.00 0.00 0.00 0.00 0.00 0.00 0.01 0.01 0.01 0.01 0.01 0.01 0.01 0.01 0.01
0.01 0.01 0.01 0.01 0.02 0.03 0.02 0.02 0.02 0.04 0.07 0.04 0.02 0.03 0.04 0.03 0.03 0.05 0.04 0.03 0.02 0.01 0.00 0.00 0.00 0.00 0.00 0.00 0.00 0.00 0.00 0.00 0.00 0.00 0.00 0.00 0.00 0.00 0.00 0.01 0.01 0.01 0.01 0.01 0.02 0.01 0.01 0.01 0.01
0.01 0.01 0.02 0.01 0.02 0.03 0.02 0.02 0.03 0.06 0.08 0.03 0.03 0.04 0.03 0.01 0.02 0.03 0.03 0.02 0.02 0.01 0.00 0.00 0.00 0.00 0.00 0.00 0.00 0.00 0.00 0.00 0.00 0.00 0.00 0.00 0.00 0.00 0.00 0.01 0.01 0.01 0.01 0.01 0.01 0.01 0.01 0.01 0.01
0.01 0.01 0.01 0.01 0.01 0.02 0.03 0.03 0.02 0.07 0.08 0.02 0.02 0.04 0.03 0.02 0.01 0.01 0.02 0.01 0.01 0.01 0.00 0.00 0.00 0.00 0.00 0.00 0.00 0.00 0.00 0.00 0.00 0.00 0.00 0.00 0.00 0.00 0.00 0.00 0.01 0.01 0.01 0.01 0.00 0.00 0.01 0.01 0.01
0.01 0.01 0.01 0.01 0.01 0.02 0.03 0.03 0.04 0.08 0.07 0.02 0.01 0.01 0.02 0.02 0.02 0.01 0.01 0.02 0.02 0.01 0.00 0.00 0.00 0.00 0.00 0.00 0.00 0.00 0.00 0.00 0.00 0.00 0.00 0.01 0.00 0.00 0.00 0.00 0.00 0.01 0.01 0.00 0.00 0.00 0.01 0.01 0.01
0.01 0.01 0.01 0.01 0.01 0.03 0.04 0.04 0.06 0.10 0.09 0.03 0.01 0.00 0.01 0.01 0.02 0.03 0.02 0.02 0.02 0.01 0.01 0.00 0.00 0.00 0.00 0.00 0.00 0.00 0.00 0.00 0.00 0.00 0.00 0.00 0.01 0.00 0.00 0.00 0.00 0.00 0.00 0.00 0.00 0.00 0.00 0.00 0.01
0.01 0.01 0.01 0.01 0.01 0.02 0.04 0.05 0.06 0.10 0.08 0.04 0.02 0.01 0.01 0.01 0.01 0.02 0.02 0.02 0.01 0.01 0.00 0.00 0.00 0.00 0.00 0.00 0.00 0.00 0.00 0.00 0.00 0.00 0.00 0.00 0.00 0.00 0.00 0.00 0.00 0.00 0.00 0.00 0.00 0.00 0.00 0.00 0.00
0.01 0.01 0.01 0.02 0.01 0.02 0.04 0.05 0.06 0.10 0.05 0.04 0.02 0.01 0.01 0.01 0.01 0.01 0.02 0.01 0.01 0.00 0.00 0.00 0.00 0.00 0.00 0.00 0.00 0.00 0.00 0.00 0.00 0.00 0.00 0.00 0.00 0.00 0.00 0.00 0.00 0.00 0.00 0.00 0.00 0.01 0.01 0.00 0.00
0.01 0.01 0.01 0.01 0.02 0.02 0.04 0.06 0.05 0.08 0.04 0.02 0.02 0.01 0.01 0.01 0.01 0.01 0.01 0.01 0.00 0.00 0.00 0.00 0.00 0.00 0.00 0.00 0.00 0.00 0.00 0.00 0.00 0.00 0.00 0.00 0.00 0.00 0.00 0.01 0.00 0.00 0.00 0.01 0.01 0.01 0.01 0.01 0.00
0.00 0.01 0.01 0.02 0.02 0.02 0.03 0.05 0.04 0.03 0.03 0.02 0.02 0.02 0.01 0.01 0.01 0.01 0.01 0.00 0.00 0.00 0.00 0.01 0.00 0.00 0.00 0.00 0.00 0.00 0.00 0.00 0.00 0.00 0.00 0.00 0.00 0.01 0.00 0.00 0.00 0.00 0.00 0.01 0.01 0.01 0.01 0.02 0.01
0.00 0.01 0.01 0.02 0.02 0.02 0.03 0.03 0.03 0.02 0.01 0.01 0.02 0.02 0.01 0.01 0.01 0.01 0.01 0.00 0.00 0.00 0.00 0.00 0.00 0.00 0.00 0.00 0.00 0.00 0.00 0.00 0.00 0.00 0.00 0.00 0.01 0.01 0.01 0.00 0.00 0.00 0.00 0.01 0.01 0.01 0.01 0.02 0.01
0.01 0.02 0.02 0.02 0.03 0.03 0.04 0.04 0.03 0.01 0.00 0.00 0.01 0.02 0.01 0.01 0.01 0.01 0.00 0.00 0.00 0.01 0.01 0.01 0.01 0.00 0.00 0.00 0.01 0.00 0.00 0.00 0.00 0.00 0.00 0.00 0.01 0.01 0.01 0.00 0.00 0.00 0.00 0.01 0.01 0.00 0.00 0.01 0.01
0.01 0.01 0.01 0.02 0.03 0.03 0.04 0.04 0.03 0.01 0.01 0.00 0.00 0.01 0.01 0.01 0.00 0.00 0.00 0.00 0.01 0.00 0.00 0.00 0.01 0.01 0.01 0.00 0.01 0.00 0.00 0.00 0.00 0.00 0.00 0.00 0.01 0.01 0.01 0.00 0.01 0.02 0.02 0.02 0.01 0.00 0.01 0.01 0.01
0.01 0.01 0.01 0.02 0.01 0.02 0.02 0.02 0.02 0.01 0.01 0.00 0.00 0.00 0.00 0.00 0.00 0.00 0.00 0.01 0.01 0.01 0.01 0.01 0.01 0.01 0.01 0.01 0.01 0.00 0.00 0.00 0.00 0.00 0.00 0.00 0.00 0.00 0.00 0.01 0.01 0.01 0.01 0.01 0.00 0.00 0.01 0.01 0.01
0.01 0.01 0.02 0.02 0.02 0.02 0.02 0.02 0.02 0.01 0.01 0.00 0.00 0.00 0.00 0.00 0.00 0.00 0.01 0.01 0.02 0.02 0.02 0.01 0.01 0.01 0.01 0.01 0.01 0.00 0.00 0.00 0.00 0.00 0.00 0.00 0.00 0.00 0.00 0.00 0.00 0.00 0.00 0.00 0.00 0.00 0.00 0.00 0.01
0.01 0.01 0.02 0.03 0.02 0.03 0.03 0.02 0.02 0.01 0.00 0.00 0.00 0.00 0.00 0.00 0.00 0.00 0.01 0.01 0.02 0.02 0.02 0.01 0.01 0.01 0.01 0.01 0.01 0.00 0.00 0.00 0.00 0.00 0.00 0.00 0.00 0.00 0.00 0.00 0.00 0.00 0.00 0.00 0.00 0.00 0.00 0.00 0.00
0.01 0.01 0.01 0.03 0.03 0.02 0.02 0.02 0.01 0.01 0.00 0.00 0.00 0.00 0.01 0.00 0.00 0.01 0.01 0.01 0.01 0.01 0.01 0.01 0.01 0.01 0.01 0.01 0.01 0.01 0.01 0.00 0.00 0.00 0.00 0.00 0.00 0.00 0.00 0.00 0.00 0.00 0.00 0.00 0.00 0.00 0.00 0.00 0.00
MSLP
1009.03 1010.16 1011.50 1012.87 1014.10 1015.05 1015.65 1015.89 1015.83 1015.59 1015.30 1015.08 1015.00 1015.07 1015.27 1015.51 1015.70 1015.77 1015.67 1015.40 1015.00 1014.55 1014.12 1013.80 1013.62 1013.59 1013.68 1013.84 1014.01 1014.13 1014.19 1014.19 1014.15 1014.11 1014.11 1014.17 1014.29 1014.45 1014.64 1014.81 1014.93 1015.00 1015.02 1015.00 1014.97 1014.94 1014.94 1014.96 1014.99
1009.37 1010.70 1012.19 1013.65 1014.87 1015.75 1016.21 1016.28 1016.05 1015.66 1015.25 1014.94 1014.81 1014.87 1015.07 1015.33 1015.55 1015.65 1015.58 1015.35 1014.99 1014.59 1014.22 1013.94 1013.81 1013.82 1013.93 1014.10 1014.28 1014.41 1014.48 1014.49 1014.46 1014.44 1014.44 1014.48 1014.58 1014.71 1014.84 1014.95 1015.02 1015.04 1015.02 1014.97 1014.92 1014.89 1014.88 1014.90 1014.93
1009.82 1011.31 1012.88 1014.34 1015.50 1016.26 1016.58 1016.50 1016.13 1015.63 1015.15 1014.82 1014.68 1014.74 1014.96 1015.23 1015.46 1015.57 1015.52 1015.32 1015.00 1014.65 1014.33 1014.10 1014.01 1014.05 1014.18 1014.35 1014.52 1014.65 1014.72 1014.74 1014.71 1014.69 1014.68 1014.71 1014.77 1014.85 1014.93 1014.98 1015.00 1014.98 1014.93 1014.87 1014.82 1014.80 1014.80 1014.83 1014.88
1010.41 1011.97 1013.55 1014.94 1015.98 1016.60 1016.76 1016.55 1016.10 1015.55 1015.07 1014.75 1014.64 1014.73 1014.96 1015.24 1015.47 1015.58 1015.53 1015.35 1015.07 1014.76 1014.50 1014.32 1014.27 1014.32 1014.45 1014.61 1014.76 1014.87 1014.92 1014.92 1014.89 1014.86 1014.84 1014.85 1014.88 1014.91 1014.94 1014.94 1014.92 1014.87 1014.81 1014.75 1014.72 1014.72 1014.75 1014.80 1014.87
1011.11 1012.68 1014.18 1015.44 1016.32 1016.76 1016.79 1016.49 1015.99 1015.46 1015.02 1014.76 1014.72 1014.85 1015.10 1015.38 1015.59 1015.68 1015.63 1015.47 1015.22 1014.96 1014.75 1014.62 1014.59 1014.65 1014.76 1014.89 1015.00 1015.06 1015.08 1015.05 1015.01 1014.97 1014.94 1014.93 1014.93 1014.93 1014.92 1014.88 1014.83 1014.77 1014.71 1014.67 1014.66 1014.69 1014.75 1014.83 1014.92
1011.87 1013.37 1014.73 1015.80 1016.48 1016.76 1016.67 1016.32 1015.84 1015.37 1015.03 1014.87 1014.90 1015.09 1015.35 1015.62 1015.80 1015.87 1015.81 1015.65 1015.45 1015.24 1015.08 1015.00 1014.99 1015.04 1015.12 1015.20 1015.25 1015.25 1015.22 1015.17 1015.10 1015.05 1015.01 1014.99 1014.98 1014.96 1014.92 1014.87 1014.80 1014.74 1014.69 1014.67 1014.68 1014.73 1014.82 1014.92 1015.03
1012.61 1013.96 1015.13 1015.98 1016.47 1016.59 1016.42 1016.06 1015.65 1015.29 1015.08 1015.04 1015.16 1015.40 1015.67 1015.91 1016.06 1016.09 1016.02 1015.87 1015.71 1015.55 1015.45 1015.41 1015.42 1015.47 1015.51 1015.53 1015.51 1015.46 1015.38 1015.29 1015.21 1015.15 1015.12 1015.10 1015.07 1015.05 1015.00 1014.94 1014.87 1014.80 1014.76 1014.76 1014.79 1014.85 1014.95 1015.06 1015.17
1013.23 1014.40 1015.34 1015.97 1016.27 1016.27 1016.06 1015.74 1015.43 1015.22 1015.15 1015.24 1015.45 1015.73 1015.99 1016.19 1016.29 1016.29 1016.20 1016.07 1015.95 1015.85 1015.81 1015.81 1015.84 1015.88 1015.89 1015.86 1015.78 1015.67 1015.55 1015.44 1015.36 1015.30 1015.28 1015.26 1015.25 1015.22 1015.17 1015.10 1015.03 1014.97 1014.94 1014.94 1014.98 1015.05 1015.14 1015.24 1015.34
1013.68 1014.63 1015.34 1015.77 1015.91 1015.83 1015.62 1015.39 1015.20 1015.15 1015.24 1015.45 1015.73 1016.02 1016.26 1016.42 1016.46 1016.41 1016.31 1016.20 1016.11 1016.08 1016.09 1016.14 1016.20 1016.23 1016.22 1016.15 1016.04 1015.90 1015.75 1015.63 1015.55 1015.51 1015.49 1015.50 1015.49 1015.47 1015.42 1015.36 1015.29 1015.24 1015.21 1015.21 1015.25 1015.31 1015.39 1015.47 1015.54
1013.94 1014.68 1015.18 1015.42 1015.45 1015.34 1015.17 1015.03 1015.00 1015.10 1015.32 1015.63 1015.96 1016.25 1016.46 1016.55 1016.54 1016.45 1016.34 1016.24 1016.19 1016.21 1016.28 1016.38 1016.46 1016.50 1016.48 1016.40 1016.26 1016.10 1015.95 1015.83 1015.77 1015.74 1015.75 1015.78 1015.79 1015.78 1015.74 1015.69 1015.63 1015.59 1015.56 1015.57 1015.60 1015.66 1015.72 1015.77 1015.80
1014.06 1014.60 1014.92 1015.03 1014.99 1014.87 1014.77 1014.74 1014.85 1015.08 1015.41 1015.78 1016.14 1016.41 1016.56 1016.59 1016.52 1016.40 1016.28 1016.19 1016.18 1016.24 1016.36 1016.50 1016.61 1016.67 1016.65 1016.57 1016.43 1016.28 1016.14 1016.04 1015.99 1015.99 1016.03 1016.07 1016.10 1016.11 1016.09 1016.06 1016.02 1015.99 1015.99 1016.00 1016.04 1016.09 1016.13 1016.15 1016.15
1014.13 1014.51 1014.68 1014.69 1014.62 1014.53 1014.50 1014.58 1014.79 1015.12 1015.52 1015.92 1016.26 1016.49 1016.59 1016.56 1016.45 1016.29 1016.16 1016.09 1016.11 1016.21 1016.36 1016.53 1016.67 1016.74 1016.74 1016.68 1016.56 1016.42 1016.31 1016.23 1016.21 1016.23 1016.28 1016.35 1016.40 1016.43 1016.44 1016.44 1016.44 1016.45 1016.47 1016.51 1016.56 1016.61 1016.63 1016.63 1016.60
1014.25 1014.50 1014.57 1014.53 1014.44 1014.39 1014.42 1014.58 1014.87 1015.25 1015.66 1016.05 1016.35 1016.53 1016.57 1016.49 1016.34 1016.18 1016.04 1015.99 1016.03 1016.15 1016.32 1016.51 1016.66 1016.76 1016.78 1016.74 1016.65 1016.54 1016.46 1016.41 1016.40 1016.44 1016.51 1016.59 1016.66 1016.72 1016.78 1016.82 1016.87 1016.93 1017.00 1017.08 1017.15 1017.20 1017.22 1017.20 1017.14
1014.52 1014.67 1014.67 1014.61 1014.53 1014.51 1014.59 1014.78 1015.09 1015.46 1015.84 1016.18 1016.41 1016.53 1016.52 1016.41 1016.25 1016.08 1015.96 1015.93 1015.98 1016.11 1016.29 1016.49 1016.65 1016.76 1016.81 1016.79 1016.74 1016.67 1016.61 1016.59 1016.59 1016.64 1016.71 1016.80 1016.89 1016.98 1017.08 1017.18 1017.30 1017.42 1017.55 1017.67 1017.78 1017.84 1017.86 1017.83 1017.74
1014.97 1015.05 1015.03 1014.95 1014.88 1014.88 1014.97 1015.16 1015.43 1015.74 1016.05 1016.30 1016.45 1016.50 1016.45 1016.33 1016.18 1016.03 1015.94 1015.93 1015.99 1016.13 1016.31 1016.50 1016.67 1016.79 1016.86 1016.88 1016.86 1016.83 1016.80 1016.79 1016.80 1016.84 1016.91 1017.00 1017.10 1017.22 1017.36 1017.52 1017.70 1017.89 1018.08 1018.25 1018.39 1018.47 1018.49 1018.45 1018.35
1015.57 1015.62 1015.58 1015.51 1015.46 1015.46 1015.53 1015.67 1015.86 1016.07 1016.26 1016.40 1016.46 1016.45 1016.38 1016.26 1016.14 1016.04 1015.99 1016.00 1016.08 1016.22 1016.39 1016.57 1016.73 1016.87 1016.97 1017.03 1017.05 1017.05 1017.05 1017.05 1017.06 1017.08 1017.13 1017.21 1017.31 1017.45 1017.63 1017.84 1018.08 1018.33 1018.56 1018.77 1018.93 1019.03 1019.05 1019.00 1018.90
1016.23 1016.28 1016.25 1016.21 1016.17 1016.17 1016.20 1016.27 1016.34 1016.41 1016.46 1016.47 1016.44 1016.37 1016.28 1016.19 1016.12 1016.07 1016.07 1016.13 1016.22 1016.36 1016.52 1016.69 1016.86 1017.01 1017.13 1017.23 1017.30 1017.35 1017.37 1017.38 1017.38 1017.39 1017.41 1017.46 1017.55 1017.69 1017.89 1018.13 1018.41 1018.70 1018.97 1019.20 1019.37 1019.47 1019.49 1019.44 1019.35
1016.87 1016.93 1016.95 1016.95 1016.94 1016.94 1016.92 1016.89 1016.84 1016.75 1016.64 1016.51 1016.38 1016.26 1016.17 1016.11 1016.09 1016.12 1016.18 1016.27 1016.38 1016.52 1016.67 1016.84 1017.01 1017.18 1017.35 1017.50 1017.62 1017.71 1017.76 1017.78 1017.77 1017.75 1017.74 1017.76 1017.83 1017.96 1018.15 1018.41 1018.70 1019.00 1019.28 1019.51 1019.67 1019.76 1019.78 1019.75 1019.68
1017.37 1017.49 1017.58 1017.65 1017.70 1017.70 1017.65 1017.52 1017.33 1017.09 1016.81 1016.54 1016.31 1016.13 1016.03 1016.01 1016.05 1016.14 1016.26 1016.39 1016.53 1016.67 1016.82 1016.98 1017.16 1017.36 1017.57 1017.78 1017.96 1018.10 1018.19 1018.23 1018.22 1018.18 1018.13 1018.11 1018.15 1018.25 1018.42 1018.66 1018.94 1019.23 1019.49 1019.71 1019.85 1019.93 1019.95 1019.93 1019.89
1017.71 1017.91 1018.11 1018.29 1018.41 1018.45 1018.37 1018.16 1017.84 1017.43 1017.00 1016.58 1016.24 1016.00 1015.88 1015.88 1015.97 1016.12 1016.29 1016.46 1016.62 1016.78 1016.93 1017.09 1017.29 1017.52 1017.77 1018.04 1018.28 1018.49 1018.62 1018.69 1018.68 1018.62 1018.55 1018.50 1018.50 1018.56 1018.70 1018.91 1019.15 1019.41 1019.64 1019.82 1019.95 1020.01 1020.03 1020.03 1020.03
1017.89 1018.21 1018.55 1018.87 1019.10 1019.18 1019.10 1018.82 1018.38 1017.82 1017.22 1016.65 1016.19 1015.88 1015.73 1015.73 1015.85 1016.04 1016.26 1016.46 1016.65 1016.81 1016.96 1017.14 1017.35 1017.61 1017.92 1018.24 1018.55 1018.82 1019.01 1019.10 1019.12 1019.06 1018.98 1018.90 1018.86 1018.89 1018.98 1019.15 1019.35 1019.56 1019.75 1019.90 1019.99 1020.04 1020.07 1020.09 1020.13
1017.99 1018.46 1018.97 1019.44 1019.79 1019.95 1019.86 1019.53 1018.97 1018.26 1017.49 1016.77 1016.18 1015.77 1015.57 1015.55 1015.68 1015.90 1016.15 1016.39 1016.59 1016.77 1016.93 1017.12 1017.35 1017.64 1017.98 1018.36 1018.73 1019.06 1019.30 1019.44 1019.49 1019.45 1019.36 1019.27 1019.21 1019.21 1019.27 1019.39 1019.55 1019.72 1019.87 1019.98 1020.06 1020.10 1020.12 1020.17 1020.25
1018.12 1018.75 1019.42 1020.05 1020.53 1020.75 1020.67 1020.27 1019.60 1018.74 1017.81 1016.93 1016.20 1015.68 1015.40 1015.35 1015.48 1015.71 1015.98 1016.24 1016.47 1016.66 1016.84 1017.03 1017.28 1017.60 1017.98 1018.40 1018.82 1019.19 1019.49 1019.68 1019.76 1019.75 1019.68 1019.60 1019.53 1019.51 1019.54 1019.63 1019.76 1019.89 1020.01 1020.10 1020.16 1020.20 1020.23 1020.29 1020.40
1018.35 1019.13 1019.97 1020.74 1021.31 1021.58 1021.49 1021.03 1020.24 1019.23 1018.14 1017.09 1016.22 1015.58 1015.22 1015.12 1015.22 1015.46 1015.75 1016.03 1016.29 1016.50 1016.70 1016.91 1017.18 1017.51 1017.91 1018.35 1018.81 1019.23 1019.57 1019.81 1019.93 1019.96 1019.92 1019.86 1019.80 1019.78 1019.80 1019.87 1019.98 1020.09 1020.19 1020.27 1020.32 1020.36 1020.40 1020.47 1020.59
1018.72 1019.63 1020.59 1021.46 1022.09 1022.38 1022.26 1021.72 1020.82 1019.66 1018.41 1017.22 1016.20 1015.45 1015.00 1014.85 1014.93 1015.16 1015.47 1015.78 1016.07 1016.31 1016.54 1016.77 1017.05 1017.39 1017.80 1018.26 1018.73 1019.17 1019.55 1019.83 1020.00 1020.07 1020.07 1020.04 1020.01 1020.00 1020.03 1020.10 1020.20 1020.31 1020.40 1020.48 1020.53 1020.57 1020.61 1020.68 1020.80
1019.21 1020.20 1021.23 1022.14 1022.79 1023.06 1022.87 1022.25 1021.23 1019.95 1018.58 1017.25 1016.12 1015.27 1014.75 1014.54 1014.59 1014.83 1015.15 1015.49 1015.82 1016.10 1016.36 1016.62 1016.91 1017.26 1017.67 1018.13 1018.60 1019.06 1019.46 1019.76 1019.98 1020.09 1020.15 1020.16 1020.16 1020.18 1020.23 1020.31 1020.41 1020.52 1020.62 1020.70 1020.76 1020.80 1020.85 1020.91 1021.01
1019.71 1020.74 1021.78 1022.68 1023.29 1023.49 1023.24 1022.52 1021.42 1020.04 1018.57 1017.16 1015.94 1015.03 1014.45 1014.20 1014.23 1014.47 1014.81 1015.18 1015.55 1015.87 1016.17 1016.46 1016.77 1017.13 1017.53 1017.98 1018.45 1018.90 1019.31 1019.64 1019.89 1020.05 1020.15 1020.21 1020.25 1020.30 1020.38 1020.48 1020.60 1020.72 1020.83 1020.91 1020.98 1021.03 1021.07 1021.12 1021.20
1020.12 1021.13 1022.12 1022.95 1023.48 1023.60 1023.26 1022.47 1021.31 1019.89 1018.38 1016.93 1015.68 1014.73 1014.12 1013.85 1013.87 1014.10 1014.45 1014.86 1015.25 1015.62 1015.96 1016.28 1016.62 1016.98 1017.38 1017.82 1018.28 1018.72 1019.13 1019.48 1019.75 1019.95 1020.09 1020.20 1020.29 1020.38 1020.49 1020.61 1020.74 1020.87 1020.99 1021.09 1021.17 1021.23 1021.27 1021.31 1021.36
1020.35 1021.28 1022.17 1022.88 1023.29 1023.31 1022.90 1022.07 1020.90 1019.49 1018.01 1016.59 1015.36 1014.42 1013.80 1013.52 1013.52 1013.74 1014.09 1014.50 1014.93 1015.33 1015.71 1016.07 1016.42 1016.80 1017.21 1017.64 1018.09 1018.52 1018.93 1019.28 1019.58 1019.82 1020.00 1020.15 1020.29 1020.41 1020.55 1020.69 1020.84 1020.98 1021.12 1021.23 1021.32 1021.39 1021.43 1021.47 1021.51
1020.34 1021.16 1021.90 1022.46 1022.74 1022.66 1022.20 1021.38 1020.25 1018.91 1017.51 1016.18 1015.02 1014.12 1013.51 1013.22 1013.19 1013.38 1013.71 1014.11 1014.54 1014.97 1015.38 1015.77 1016.17 1016.57 1016.99 1017.43 1017.87 1018.30 1018.71 1019.08 1019.40 1019.66 1019.89 1020.08 1020.25 1020.41 1020.58 1020.74 1020.90 1021.06 1021.20 1021.32 1021.42 1021.51 1021.57 1021.62 1021.66
Thickness
5795 5794 5791 5779 5757 5739 5734 5741 5748 5748 5749 5753 5756 5753 5746 5739 5735 5731 5747 5755 5754 5753 5753 5753 5752 5751 5749 5748 5747 5747 5746 5745 5744 5744 5743 5742 5742 5742 5741 5741 5741 5742 5742 5742 5742 5743 5744 5745 5746
5794 5792 5782 5765 5741 5725 5731 5743 5746 5749 5754 5757 5756 5752 5745 5741 5745 5746 5749 5753 5754 5753 5752 5751 5750 5749 5748 5747 5746 5745 5744 5743 5742 5741 5741 5740 5740 5739 5739 5739 5739 5739 5739 5739 5740 5740 5741 5742 5743
5794 5789 5769 5751 5737 5728 5734 5744 5748 5753 5758 5757 5750 5748 5744 5741 5746 5748 5751 5753 5752 5751 5750 5749 5749 5747 5746 5745 5744 5743 5742 5741 5740 5739 5739 5738 5737 5737 5736 5737 5737 5737 5737 5737 5737 5738 5738 5739 5740
5787 5774 5761 5743 5734 5739 5744 5747 5751 5752 5754 5755 5749 5741 5744 5750 5750 5752 5753 5752 5750 5749 5749 5748 5747 5746 5745 5743 5742 5741 5740 5739 5738 5737 5737 5736 5735 5735 5734 5734 5734 5734 5734 5734 5734 5735 5735 5736 5737
5781 5762 5745 5733 5735 5743 5749 5752 5754 5749 5747 5748 5746 5737 5738 5748 5753 5753 5752 5750 5748 5748 5747 5746 5745 5744 5743 5742 5740 5739 5738 5737 5737 5736 5735 5734 5733 5732 5732 5732 5732 5731 5731 5731 5731 5732 5733 5733 5734
5764 5752 5731 5724 5733 5742 5749 5753 5751 5746 5744 5746 5743 5736 5736 5747 5749 5749 5749 5748 5747 5746 5745 5744 5743 5742 5741 5740 5739 5738 5737 5736 5735 5734 5733 5732 5731 5731 5730 5730 5729 5729 5728 5728 5729 5729 5730 5730 5731
5756 5742 5729 5729 5730 5737 5747 5753 5748 5743 5741 5743 5744 5734 5735 5742 5746 5747 5747 5746 5745 5744 5743 5742 5741 5740 5739 5738 5737 5736 5735 5734 5733 5733 5731 5730 5729 5729 5728 5728 5727 5726 5726 5726 5726 5726 5726 5727 5728
5760 5743 5730 5728 5729 5735 5747 5751 5750 5746 5742 5749 5747 5734 5732 5741 5745 5745 5743 5742 5742 5742 5741 5740 5739 5738 5737 5736 5735 5735 5734 5733 5732 5731 5730 5729 5728 5727 5726 5725 5724 5724 5723 5723 5723 5723 5723 5724 5724
5762 5734 5723 5729 5731 5737 5748 5746 5748 5751 5745 5745 5746 5743 5744 5746 5743 5740 5737 5737 5737 5738 5738 5738 5737 5736 5735 5734 5734 5733 5732 5731 5731 5729 5728 5727 5726 5724 5723 5723 5722 5721 5720 5720 5719 5719 5720 5720 5721
5749 5727 5732 5741 5742 5742 5745 5744 5744 5742 5737 5737 5739 5742 5744 5742 5739 5735 5733 5732 5733 5734 5736 5736 5735 5734 5733 5733 5732 5731 5730 5729 5729 5727 5726 5725 5724 5722 5721 5721 5719 5718 5717 5716 5716 5716 5716 5716 5717
5747 5734 5740 5744 5747 5747 5744 5742 5744 5737 5731 5735 5735 5736 5739 5737 5735 5733 5732 5732 5732 5733 5734 5735 5734 5733 5732 5731 5730 5729 5728 5728 5727 5725 5724 5723 5721 5720 5719 5718 5716 5715 5714 5713 5712 5712 5712 5713 5713
5743 5741 5744 5744 5748 5745 5741 5740 5737 5736 5736 5742 5741 5739 5737 5734 5732 5732 5731 5731 5731 5731 5732 5733 5732 5731 5730 5729 5728 5727 5726 5725 5724 5723 5722 5721 5719 5717 5716 5714 5713 5712 5711 5710 5709 5709 5709 5709 5710
5739 5738 5742 5742 5743 5741 5739 5735 5734 5733 5738 5740 5738 5736 5733 5731 5732 5732 5733 5731 5730 5730 5730 5731 5731 5730 5728 5727 5726 5725 5724 5723 5723 5722 5721 5719 5717 5715 5714 5712 5710 5709 5708 5707 5706 5705 5705 5705 5706
5738 5736 5735 5736 5736 5737 5732 5730 5730 5728 5734 5733 5731 5729 5729 5729 5729 5729 5729 5728 5728 5728 5729 5729 5729 5728 5727 5725 5724 5723 5723 5722 5721 5720 5719 5717 5716 5714 5712 5710 5708 5707 5706 5705 5703 5702 5702 5702 5702
5739 5730 5727 5729 5730 5730 5729 5718 5721 5727 5729 5726 5725 5725 5726 5726 5727 5727 5728 5727 5727 5727 5728 5727 5727 5726 5725 5724 5723 5722 5721 5720 5719 5718 5717 5716 5714 5713 5711 5708 5706 5705 5704 5702 5701 5700 5700 5699 5699
5729 5717 5708 5719 5725 5726 5720 5705 5718 5725 5723 5719 5720 5721 5721 5723 5725 5726 5727 5727 5727 5727 5726 5726 5727 5724 5723 5722 5721 5720 5719 5718 5717 5717 5716 5715 5713 5711 5709 5707 5705 5703 5702 5701 5699 5698 5696 5695 5694
5710 5700 5702 5710 5720 5720 5714 5705 5715 5720 5719 5716 5716 5717 5718 5719 5722 5724 5726 5726 5726 5725 5724 5723 5723 5722 5721 5720 5718 5718 5717 5716 5715 5715 5714 5713 5711 5710 5708 5706 5703 5702 5700 5699 5698 5695 5694 5692 5691
5698 5698 5700 5702 5712 5713 5707 5705 5711 5715 5715 5713 5714 5714 5715 5716 5720 5723 5724 5725 5724 5723 5723 5721 5721 5720 5719 5717 5716 5715 5714 5714 5713 5713 5712 5711 5710 5709 5707 5705 5702 5701 5699 5697 5695 5693 5691 5690 5689
5708 5702 5697 5701 5711 5708 5703 5702 5706 5711 5711 5710 5711 5712 5713 5715 5720 5722 5722 5722 5721 5720 5720 5719 5718 5717 5716 5715 5713 5711 5710 5710 5710 5710 5710 5709 5709 5707 5706 5703 5701 5700 5697 5695 5694 5692 5689 5687 5687
5706 5698 5694 5699 5708 5705 5699 5700 5706 5709 5710 5712 5712 5712 5713 5714 5716 5718 5718 5718 5719 5718 5718 5717 5717 5716 5715 5715 5713 5711 5709 5708 5708 5708 5708 5708 5707 5706 5705 5703 5700 5699 5696 5694 5692 5691 5688 5686 5685
5700 5695 5694 5693 5699 5700 5697 5693 5699 5707 5711 5713 5714 5714 5715 5715 5714 5715 5716 5716 5717 5716 5717 5718 5716 5715 5714 5714 5712 5710 5707 5706 5705 5705 5705 5705 5705 5705 5703 5702 5700 5698 5696 5693 5691 5690 5689 5685 5684
5692 5703 5700 5696 5687 5680 5688 5674 5692 5700 5704 5708 5711 5712 5714 5716 5716 5715 5716 5715 5716 5717 5718 5717 5716 5715 5714 5713 5711 5708 5704 5702 5702 5702 5703 5703 5704 5703 5702 5701 5699 5697 5696 5693 5692 5691 5689 5687 5683
5699 5705 5699 5694 5685 5678 5681 5674 5684 5696 5697 5705 5711 5714 5715 5716 5717 5716 5717 5717 5717 5718 5716 5716 5714 5713 5712 5711 5710 5707 5704 5702 5701 5701 5702 5702 5701 5701 5701 5699 5698 5696 5695 5693 5692 5690 5689 5687 5684
5705 5697 5690 5682 5676 5667 5677 5672 5678 5691 5701 5708 5713 5716 5717 5717 5717 5717 5718 5717 5716 5716 5715 5714 5712 5711 5710 5709 5708 5706 5704 5702 5701 5700 5699 5699 5699 5699 5699 5698 5697 5696 5694 5693 5692 5690 5689 5687 5685
5697 5680 5664 5662 5657 5661 5677 5674 5682 5705 5712 5715 5716 5716 5718 5718 5716 5715 5714 5714 5714 5713 5713 5712 5710 5709 5708 5707 5706 5706 5704 5703 5701 5700 5699 5698 5697 5697 5697 5697 5696 5695 5694 5693 5691 5690 5688 5687 5685
5689 5682 5662 5653 5651 5659 5672 5672 5692 5714 5718 5720 5720 5719 5718 5717 5716 5716 5716 5715 5714 5714 5712 5711 5709 5708 5707 5706 5705 5705 5704 5703 5701 5700 5699 5698 5697 5696 5696 5696 5695 5695 5694 5692 5691 5689 5688 5686 5684
5685 5678 5680 5665 5662 5658 5665 5678 5697 5713 5714 5716 5717 5716 5716 5717 5716 5716 5716 5715 5715 5714 5713 5711 5709 5708 5707 5706 5705 5704 5704 5702 5701 5700 5699 5698 5697 5696 5696 5695 5695 5694 5692 5691 5690 5688 5686 5685 5683
5693 5682 5669 5662 5654 5651 5664 5673 5682 5700 5705 5710 5712 5713 5714 5716 5716 5715 5715 5715 5715 5715 5713 5712 5710 5709 5707 5706 5705 5704 5703 5702 5701 5699 5698 5697 5696 5696 5694 5694 5693 5692 5691 5689 5688 5686 5684 5683 5681
5682 5678 5671 5661 5660 5651 5652 5670 5702 5705 5709 5710 5712 5714 5714 5715 5714 5714 5715 5715 5715 5713 5712 5710 5709 5708 5706 5705 5704 5703 5702 5701 5700 5698 5697 5697 5696 5695 5693 5692 5691 5690 5688 5687 5685 5684 5682 5681 5679
5689 5682 5673 5663 5658 5656 5654 5670 5712 5712 5713 5714 5714 5715 5716 5716 5715 5715 5715 5714 5712 5711 5711 5710 5709 5708 5707 5706 5704 5703 5701 5700 5698 5697 5697 5696 5695 5693 5692 5691 5689 5688 5686 5685 5683 5682 5680 5678 5677